Regional Weather Roundup
Issued by NWS

Home | Current Version | Previous Version | Text Only | Print | Product List | Glossary On
Versions: 1 2 3 4 5 6 7 8 9 10 11 12 13 14 15 16 17 18 19 20 21 22 23 24 25 26 27 28 29 30 31 32 33 34 35 36 37 38 39 40 41 42 43 44 45 46 47 48 49 50
131
ASUS43 KTOP 102059
RWRKS

WEATHER ROUNDUP FOR KANSAS
NATIONAL WEATHER SERVICE GOODLAND KS
300 PM CST SUN DEC 10 2017

NOTE:  "FAIR" INDICATES FEW OR NO CLOUDS BELOW 12,000 FEET WITH NO
SIGNIFICANT WEATHER AND/OR OBSTRUCTIONS TO VISIBILITY.

KSZ001>006-013>018-027>032-041>047-102200-
NORTHWEST KANSAS

CITY           SKY/WX    TMP DP  RH WIND       PRES   REMARKS
GOODLAND       SUNNY     63   0   8 NW10      30.29F
HAYS           SUNNY     67  14  13 W14       30.23F
HILL CITY      SUNNY     68  15  13 NW13G22   30.23F
RUSSELL        SUNNY     68  12  11 NW15      30.20F
$$

KSZ061>065-074>080-084>089-102200-
SOUTHWEST KANSAS

CITY           SKY/WX    TMP DP  RH WIND       PRES   REMARKS
DODGE CITY     SUNNY     66  10  11 NW7       30.29F
GARDEN CITY    SUNNY     65  -1   7 NW13      30.29F
GREAT BEND     SUNNY     67  13  12 NW12      30.23F
LIBERAL        SUNNY     65   5   9 N10       30.33F
$$

KSZ066>073-081>083-090>101-102200-
SOUTHEAST KANSAS

CITY           SKY/WX    TMP DP  RH WIND       PRES   REMARKS
CHANUTE        SUNNY     62  21  20 NW12      30.16F
COFFEYVILLE    SUNNY     64  21  19 NW9       30.17F
HUTCHINSON     SUNNY     67  15  13 NW15      30.20F
MEDICINE LODGE   N/A     69  16  13 N15G21    30.24S
NEWTON         SUNNY     65  15  14 NW20      30.19F
PARSONS        SUNNY     64  20  18 NW15G21   30.17F
WICHITA INTL   MOSUNNY   66  16  14 NW15      30.20F
WICHITA JABRA  SUNNY     65  15  14 NW12      30.19F
WICHITA MCCONL SUNNY     65  16  15 NW15      30.19F
WINFIELD       SUNNY     65  17  15 NW14      30.21F
$$

KSZ007>012-019>026-033>040-048>060-102>105-102200-
NORTHEAST KANSAS

CITY           SKY/WX    TMP DP  RH WIND       PRES   REMARKS
CONCORDIA      SUNNY     65  15  14 NW13      30.15F
EMPORIA        SUNNY     61  22  22 NW10      30.15F
LAWRENCE       SUNNY     59  23  25 W12       30.12S
MANHATTAN      SUNNY     64  19  17 W10       30.14F
OLATHE IND     SUNNY     56  23  27 W14       30.12S
OLATHE EXE     SUNNY     55  23  28 W10       30.10F
SALINA         SUNNY     67  18  15 NW14      30.18F
TOPEKA BILLARD SUNNY     60  23  24 W13G21    30.12S
TOPEKA FORBES  SUNNY     61  23  23 W15       30.13S
$$




USA.gov is the U.S. government's official web portal to all federal, state and local government web resources and services.